Regional Weather Roundup
Issued by NWS Midland/Odessa, TX

Skip options and go directly to product.
Home | Oldest Version | Next Version | Current Version | All | Text Only | Save Text | Print | Product List | Glossary On

Skip product version selection by date and time.   
023
ASUS44 KMAF 291710
RWRMAF
MIDLAND AREA WEATHER ROUNDUP
NATIONAL WEATHER SERVICE MIDLAND TX
1200 PM CDT SAT AUG 29 2015

...IN SOUTHWEST TEXAS AND SOUTHEAST NEW MEXICO...

CITY           SKY/WX    TMP DP  RH WIND       PRES   REMARKS
ALPINE         CLOUDY    77  52  41 NE6       30.30R
ANDREWS        CLOUDY    72  66  82 CALM      30.20S
ARTESIA        SUNNY     77  61  57 NE8       30.22S
BIG SPRING     CLOUDY    75  62  64 NW6       30.18S
CARLSBAD       SUNNY     84  57  39 NE8       30.18S
DRYDEN           N/A     81  61  50 VRB6      30.10R
FORT STOCKTON  CLOUDY    74  56  53 NE9       30.18R
GUAD PASS      SUNNY     73  57  57 E21       30.31R
HOBBS          PTSUNNY   75  64  69 CALM      30.22S
MARFA          CLOUDY    77  46  33 E3        30.26S
MIDLAND AIRPK  LGT RAIN  76  62  59 NW8       30.19S
MIDLAND INTL   LGT RAIN  73  64  73 N13       30.17S
ODESSA         CLOUDY    75  61  61 NE12      30.18S
PECOS          PTSUNNY   81  52  36 E7        30.16S
PRESIDIO       NOT AVBL
SEMINOLE       CLOUDY    74  64  71 CALM      30.21S
SNYDER         LGT RAIN  77  62  60 SW3       30.16S
WINK           CLOUDY    79  63  57 NE7       30.16R
$$
...OTHER STATIONS IN TEXAS...

CITY           SKY/WX    TMP DP  RH WIND       PRES   REMARKS
ABILENE        CLOUDY    85  58  39 SW12      30.09R
AMARILLO       MOSUNNY   84  60  44 NE10      30.19R
AUSTIN         MOSUNNY   86  65  49 SW6       30.06F
BROWNSVILLE    PTSUNNY   90  68  48 VRB5      30.01F
CORPUS CHRISTI MOSUNNY   88  63  43 S9        30.03S
DALLAS FTW     PTSUNNY   91  65  41 S13       30.00F
DEL RIO        MOSUNNY   86  65  49 SE14      30.04S
EL PASO        MOSUNNY   82  57  42 N8        30.19R
HOUSTON INT    MOSUNNY   87  65  47 VRB5      30.06F
LUBBOCK        CLOUDY    76  65  68 N6        30.19R
SAN ANGELO     CLOUDY    82  61  48 SW3       30.12R
SAN ANTONIO    MOSUNNY   84  65  52 CALM      30.08S
WACO           MOSUNNY   90  65  43 S14       30.05S
WICHITA FALLS  NOT AVBL
$$
...OTHER LOCATIONS IN NEW MEXICO...

CITY           SKY/WX    TMP DP  RH WIND       PRES   REMARKS
ALAMAGORDO     SUNNY     81  55  41 S3        30.21S
ALBUQUERQUE    MOSUNNY   78  51  38 N9        30.31F
CANNON AFB     SUNNY     85  57  38 E15       30.22R
CLOVIS         SUNNY     84  57  39 E15       30.24S
HOLLOMAN AFB   SUNNY     84  55  36 VRB7      30.18S
ROSWELL        SUNNY     79  60  52 VRB5      30.21S
RUIDOSO        SUNNY     72  48  43 MISG      30.42S
SANTA FE       SUNNY     77  47  34 VRB5      30.38S
TRUTH OR CONSE SUNNY     80  55  42 NE9       30.25S
TUCUMCARI      SUNNY     86  56  35 VRB6      30.21S
$$

USA.gov is the U.S. government's official web portal to all federal, state and local government web resources and services.